#timestamp,LO_Frequency,Hit,Temp,Hum 
1488060015.3,286047046.8,N,0.0,0.0
1488060035.1,286047046.7,N,0.0,0.0
1488060055.9,286047048.8,N,0.0,0.0
1488060075.7,286047046.3,N,0.0,0.0
1488060095.5,286047049.2,N,0.0,0.0
1488060115.4,286047047.3,N,0.0,0.0
1488060135.2,286047046.2,N,0.0,0.0
1488060155.0,286047046.8,N,0.0,0.0
1488060175.3,286047046.7,N,0.0,0.0
1488060195.1,286047046.1,N,0.0,0.0
1488060215.9,286047046.3,N,0.0,0.0
1488060235.7,286047048.4,N,0.0,0.0
1488060255.5,286047049.8,N,0.0,0.0
1488060275.4,286047050.8,N,0.0,0.0
1488060295.2,286047048.4,N,0.0,0.0
1488060315.0,286047050.3,N,0.0,0.0
1488060315.9,286047050.3,N,0.0,0.0
1488060335.8,286047048.7,N,0.0,0.0
1488060355.6,286047050.8,N,0.0,0.0
1488060375.4,286047048.4,N,0.0,0.0
1488060395.3,286047050.5,N,0.0,0.0
1488060415.1,286047050.6,N,0.0,0.0
1488060435.8,286047050.2,N,0.0,0.0
1488060455.7,286047052.0,N,0.0,0.0
1488060475.5,286047049.5,N,0.0,0.0
1488060495.3,286047049.7,N,0.0,0.0
1488060515.4,286047049.9,N,0.0,0.0
1488060535.3,286047051.7,N,0.0,0.0
1488060555.1,286047048.1,N,0.0,0.0
1488060575.8,286047049.7,N,0.0,0.0
1488060595.0,286047051.6,N,0.0,0.0
1488060615.0,286047050.9,N,0.0,0.0
1488060635.1,286047046.2,N,0.0,0.0
1488060655.8,286047050.7,N,0.0,0.0
1488060675.7,286047050.6,N,0.0,0.0
1488060695.5,286047050.2,N,0.0,0.0
1488060715.3,286047049.8,N,0.0,0.0
1488060735.6,286047051.9,N,0.0,0.0
1488060755.4,286047052.0,N,0.0,0.0
1488060775.2,286047049.8,N,0.0,0.0
1488060795.1,286047049.8,N,0.0,0.0
1488060796.0,286047049.8,N,0.0,0.0
1488060815.8,286047049.3,N,0.0,0.0
1488060835.6,286047049.3,N,0.0,0.0
1488060855.5,286047050.0,N,0.0,0.0
1488060875.3,286047050.8,N,0.0,0.0
1488060895.4,286047049.9,N,0.0,0.0
1488060915.3,286047050.3,N,0.0,0.0
1488060935.1,286047049.6,N,0.0,0.0
1488060955.8,286047052.4,N,0.0,0.0
1488060975.7,286047049.6,N,0.0,0.0
1488060995.5,286047051.4,N,0.0,0.0
1488061015.3,286047051.1,N,0.0,0.0
1488061035.8,286047052.1,N,0.0,0.0
1488061055.7,286047053.2,N,0.0,0.0
1488061075.7,286047051.5,N,0.0,0.0
1488061095.6,286047051.2,N,0.0,0.0
1488061115.3,286047052.3,N,0.0,0.0
1488061135.1,286047053.9,N,0.0,0.0
1488061155.1,286047054.0,N,0.0,0.0
1488061156.0,286047054.0,N,0.0,0.0
1488061175.8,286047053.3,N,0.0,0.0
1488061195.5,286047053.9,N,0.0,0.0
1488061215.3,286047053.4,N,0.0,0.0
1488061235.1,286047054.2,N,0.0,0.0
1488061255.1,286047054.7,N,0.0,0.0
1488061256.0,286047054.7,N,0.0,0.0
1488061275.8,286047056.8,N,0.0,0.0
1488061315.0,286047056.8,N,0.0,0.0
1488061315.9,286047056.8,N,0.0,0.0
1488061335.7,286047054.8,N,0.0,0.0
1488061355.8,286047054.3,N,0.0,0.0
1488061375.6,286047053.6,N,0.0,0.0
1488061395.5,286047052.8,N,0.0,0.0
1488061415.3,286047053.7,N,0.0,0.0
1488061435.1,286047053.5,N,0.0,0.0
1488061455.9,286047052.2,N,0.0,0.0
1488061475.7,286047052.2,N,0.0,0.0
1488061495.5,286047051.0,N,0.0,0.0
1488061515.4,286047051.0,N,0.0,0.0
1488061535.2,286047052.1,N,0.0,0.0
1488061555.0,286047053.8,N,0.0,0.0
1488061555.9,286047053.8,N,0.0,0.0
1488061575.8,286047053.1,N,0.0,0.0
1488061595.6,286047054.0,N,0.0,0.0
1488061615.4,286047055.6,N,0.0,0.0
1488061635.3,286047057.0,N,0.0,0.0
1488061655.1,286047055.4,N,0.0,0.0
1488061675.9,286047054.6,N,0.0,0.0
1488061695.7,286047056.5,N,0.0,0.0
1488061715.0,286047056.0,N,0.0,0.0
1488061715.9,286047056.0,N,0.0,0.0
1488061735.8,286047055.1,N,0.0,0.0
1488061755.6,286047056.2,N,0.0,0.0
1488061775.4,286047056.4,N,0.0,0.0
1488061795.3,286047055.8,N,0.0,0.0
1488061815.1,286047056.0,N,0.0,0.0
1488061835.2,286047054.1,N,0.0,0.0
1488061855.5,286047056.9,N,0.0,0.0
1488061875.3,286047056.7,N,0.0,0.0
1488061895.1,286047055.9,N,0.0,0.0
1488061915.9,286047054.7,N,0.0,0.0
1488061935.7,286047056.8,N,0.0,0.0
1488061955.7,286047054.1,N,0.0,0.0
1488061975.5,286047055.3,N,0.0,0.0
1488061995.4,286047055.5,N,0.0,0.0
1488062015.3,286047055.4,N,0.0,0.0
1488062035.1,286047055.4,N,0.0,0.0
1488062055.5,286047055.3,N,0.0,0.0
1488062075.3,286047053.6,N,0.0,0.0
1488062095.1,286047053.7,N,0.0,0.0
1488062115.9,286047053.1,N,0.0,0.0
1488062135.7,286047052.8,N,0.0,0.0
1488062155.5,286047055.4,N,0.0,0.0
1488062175.4,286047054.6,N,0.0,0.0
1488062195.2,286047056.9,N,0.0,0.0
1488062215.0,286047055.7,N,0.0,0.0
1488062215.9,286047055.7,N,0.0,0.0
1488062235.8,286047060.1,N,0.0,0.0
1488062255.6,286047059.1,N,0.0,0.0
1488062275.4,286047057.5,N,0.0,0.0
1488062295.3,286047057.3,N,0.0,0.0
1488062315.1,286047060.0,N,0.0,0.0
1488062316.0,286047060.0,N,0.0,0.0
1488062335.8,286047057.3,N,0.0,0.0
1488062355.7,286047058.6,N,0.0,0.0
1488062375.5,286047057.3,N,0.0,0.0
1488062395.3,286047059.5,N,0.0,0.0
1488062415.1,286047061.9,N,0.0,0.0
1488062435.9,286047059.0,N,0.0,0.0
1488062455.7,286047060.0,N,0.0,0.0
1488062475.5,286047059.4,N,0.0,0.0
1488062495.4,286047061.4,N,0.0,0.0
1488062515.2,286047059.8,N,0.0,0.0
1488062535.0,286047059.6,N,0.0,0.0
1488062535.9,286047059.6,N,0.0,0.0
1488062555.8,286047057.9,N,0.0,0.0
1488062575.6,286047061.4,N,0.0,0.0
1488062595.4,286047059.0,N,0.0,0.0
1488062615.3,286047061.3,N,0.0,0.0
1488062635.1,286047060.2,N,0.0,0.0
1488062655.8,286047061.1,N,0.0,0.0
1488062675.7,286047059.1,N,0.0,0.0
1488062695.5,286047061.9,N,0.0,0.0
1488062715.3,286047063.6,N,0.0,0.0
1488062735.2,286047061.0,N,0.0,0.0
1488062755.9,286047063.4,N,0.0,0.0
1488062775.7,286047061.0,N,0.0,0.0
1488062795.6,286047062.1,N,0.0,0.0
1488062815.4,286047063.7,N,0.0,0.0
1488062835.2,286047064.2,N,0.0,0.0
1488062855.1,286047066.1,N,0.0,0.0
1488062856.0,286047066.1,N,0.0,0.0
1488062875.8,286047066.7,N,0.0,0.0
1488062895.6,286047063.8,N,0.0,0.0
1488062935.9,286047065.1,N,0.0,0.0
1488062955.8,286047064.2,N,0.0,0.0
1488062975.5,286047064.9,N,0.0,0.0
1488062995.4,286047064.1,N,0.0,0.0
1488063015.2,286047064.7,N,0.0,0.0
1488063035.0,286047066.4,N,0.0,0.0
1488063035.9,286047066.4,N,0.0,0.0
1488063055.8,286047064.2,N,0.0,0.0
1488063075.6,286047064.3,N,0.0,0.0
1488063095.4,286047066.4,N,0.0,0.0
1488063115.3,286047066.7,N,0.0,0.0
1488063135.1,286047062.2,N,0.0,0.0
1488063136.0,286047062.2,N,0.0,0.0
1488063155.8,286047063.3,N,0.0,0.0
1488063175.7,286047062.2,N,0.0,0.0
1488063195.5,286047062.4,N,0.0,0.0
1488063215.3,286047062.8,N,0.0,0.0
1488063235.1,286047062.6,N,0.0,0.0
1488063255.9,286047065.1,N,0.0,0.0
1488063275.7,286047062.3,N,0.0,0.0
1488063295.5,286047064.8,N,0.0,0.0
1488063315.4,286047060.6,N,0.0,0.0
1488063335.2,286047064.6,N,0.0,0.0
1488063355.0,286047060.9,N,0.0,0.0
1488063355.9,286047060.9,N,0.0,0.0
1488063375.8,286047063.1,N,0.0,0.0
1488063395.6,286047063.1,N,0.0,0.0
1488063415.4,286047062.9,N,0.0,0.0
1488063435.3,286047063.1,N,0.0,0.0
1488063455.1,286047060.6,N,0.0,0.0
1488063475.8,286047062.7,N,0.0,0.0
1488063495.7,286047062.2,N,0.0,0.0
1488063515.5,286047064.9,N,0.0,0.0
1488063535.3,286047064.3,N,0.0,0.0
1488063555.2,286047064.3,N,0.0,0.0
1488063575.9,286047064.3,N,0.0,0.0
1488063595.7,286047066.4,N,0.0,0.0
